Regional Weather Roundup
Issued by NWS Sterling, VA

Home | Current Version | Previous Version | Text Only | Print | Product List | Glossary Off
Versions: 1 2 3 4 5 6 7 8 9 10 11 12 13 14 15 16 17 18 19 20 21 22 23 24 25 26 27 28 29 30 31 32 33 34 35 36 37 38 39 40 41 42 43 44 45 46 47 48 49 50

000
ASUS41 KLWX 281810
RWRLWX

REGIONAL WEATHER ROUNDUP
NATIONAL WEATHER SERVICE BALTIMORE MD/WASHINGTON DC
200 PM EDT SAT MAR 28 2015

Note: "FAIR" indicates few or no clouds below 12,000 feet
with no significant weather and/or obstructions to visibility.
 TC=TEMPERATURE CELSIUS

 * =Non NWS site. Station does not report precipitation (e.g. rain,
    snow, etc.), thunder, or fog.

DCZ001-MDZ009-015-VAZ040>042-051-053>054-281900-
WASHINGTON METRO

CITY           SKY/WX    TMP DP  RH WIND       PRES   REMARKS
WASHINGTON NAT PTSUNNY   38  13  35 NW15G24   30.03S
DULLES         PTSUNNY   32   9  38 NW22G31   30.03S WCI  19
ANDREWS AFB    PTSUNNY   35  13  40 NW20G25   29.99S WCI  24
FT BELVOIR     MOSUNNY   35   9  33 NW18G24   30.03S WCI  24
QUANTICO       SUNNY     36   8  31 NW15G28   30.06R WCI  27
COLLEGE PARK*  CLOUDY    34  12  40 NW10G21   30.01S WCI  26
LEESBURG*      PTSUNNY   34  16  47 NW22G33   30.05R WCI  22
MANASSAS*      MOSUNNY   36  12  38 NW17G29   30.05R WCI  25
GAITHERSBURG*  CLOUDY    30  10  43 NW14G25   30.04R WCI  20

$$

MDZ006>007-011-014-281900-
BALTIMORE METRO

CITY           SKY/WX    TMP DP  RH WIND       PRES   REMARKS
BWI AIRPORT    CLOUDY    33  14  45 NW16G28   29.99R WCI  23
MD SCIENCE CTR   N/A     34  13  41 MISG      29.99F
MARTIN STATE   CLOUDY    34  19  55 NW20G29   30.00R WCI  22
ANNAPOLIS      CLOUDY    34  16  47 NW14      29.99R WCI  25

$$

MDZ012-015-019>023-281900-
MARYLAND EASTERN SHORE

CITY           SKY/WX    TMP DP  RH WIND       PRES   REMARKS
OCEAN CITY     CLOUDY    37  21  52 NW17G23   29.93R WCI  27
SALISBURY      PTSUNNY   37  17  44 NW20      29.95R WCI  27
BAY BRIDGE AP*   N/A     34  18  51 NW15G21   29.99S WCI  24
CAMBRIDGE*     MOSUNNY   36  18  48 NW15G24   29.98R WCI  26
EASTON*        MOSUNNY   37  21  52 N14G32    30.01R WCI  29

$$

MDZ017>025-281900-
SOUTHERN MARYLAND

CITY           SKY/WX    TMP DP  RH WIND       PRES   REMARKS
PATUXENT RIVER MOSUNNY   37  10  32 NW21G32   30.00R WCI  26
ST INIGOES     SUNNY     38   8  29 W17G28    30.00R WCI  28
LEONARDTOWN*   SUNNY     36   9  32 W14G23    30.01S WCI  27

$$

MDZ003>005-281900-
NORTH CENTRAL MARYLAND

CITY           SKY/WX    TMP DP  RH WIND       PRES   REMARKS
FREDERICK*     PTSUNNY   34   7  32 NW18      30.05S WCI  23
HAGERSTOWN APT CLOUDY    31   9  39 NW22      30.01S WCI  18
WESTMINSTER*   PTSUNNY   30  14  51 NW14G23   29.97S WCI  20

$$

MDZ501>502-281900-
WESTERN MARYLAND

CITY           SKY/WX    TMP DP  RH WIND       PRES   REMARKS
OAKLAND*       CLOUDY    14  12  92 NW14G21   29.96S FOG     WCI  -1
CUMBERLAND*    MOSUNNY   30   5  34 W12G21    30.13R WCI  21

$$

VAZ025>031-281900-
SHENANDOAH VALLEY

CITY           SKY/WX    TMP DP  RH WIND       PRES   REMARKS
WINCHESTER*    CLOUDY    30   1  29 W21G30    30.05S WCI  17
FRONT ROYAL*   CLOUDY    28   7  40 W15G25    30.05S WCI  17
LURAY*         CLOUDY    32  10  40 NW14G23   30.06R WCI  22
NEW MARKET*    MOCLDY    30  10  43 N12G25    30.06R WCI  21
STAUNTON*      MOSUNNY   33   4  29 NW9G23    30.03F WCI  26
WAYNESBORO*    FAIR      31   4  31 NW15G25   30.00S WCI  21

$$

WVZ021-048>050-054>055-281900-
EASTERN WEST VIRGINIA PANHANDLE

CITY           SKY/WX    TMP DP  RH WIND       PRES   REMARKS
MARTINSBURG    PTSUNNY   34   8  33 NW20G29   30.05S WCI  23
PETERSBURG*    PTSUNNY   26   2  36 NW16G29   30.12R WCI  14

$$

VAZ036>039-050-281900-
CENTRAL FOOTHILLS

CITY           SKY/WX    TMP DP  RH WIND       PRES   REMARKS
CHARLOTTESVILL MOSUNNY   37   7  28 NW16G24   30.03S WCI  28
CULPEPER*      MOSUNNY   36  10  35 N14       30.06R WCI  27
ORANGE*        SUNNY     37  10  32 W17       30.05R WCI  28
GORDONSVILLE*  FAIR      35   6  29 NW12G17   30.03S WCI  27
WARRENTON*     FAIR      37  19  49 W15G25    30.05R WCI  27

$$

VAZ055>057-281900-
NORTH AND CENTRAL PIEDMONT

CITY           SKY/WX    TMP DP  RH WIND       PRES   REMARKS
FREDERICKSBRG* SUNNY     37  11  34 NW15G28   30.04R WCI  28
STAFFORD*      SUNNY     35  10  35 NW20G28   30.09R WCI  24

$$

NCZ024-NYZ072-PAZ021-071-VAZ022-071-281900-
OTHER REGIONAL OBSERVATIONS

CITY           SKY/WX    TMP DP  RH WIND       PRES   REMARKS
NEW YORK CITY  CLOUDY    37  23  56 NE7       29.86S
PHILADELPHIA   CLOUDY    40  16  37 NW18G25   29.90S
PITTSBURGH     PTSUNNY   24   8  50 NW15      30.15R WCI  11
ROANOKE        MOSUNNY   33   9  36 W21G28    30.09S WCI  21
RICHMOND       PTSUNNY   41  13  31 NW17G26   30.02R
RALEIGH        MOSUNNY   42  15  33 N8G20     30.06S

$$

ANZ530>537-281900-
MARINE OBSERVATIONS

STATION/POSITION TIME  TEMP    WIND        PRES
                       AIR SEA DIR/SP/G
                 (UTC) (F)     (DEG/KT/KT) (MB)
THOMAS PT LIGHT  1800                        N/A
BALT KEY BRIDGE  1700   31     310/ 17/ 22 1015.2F
COVE POINT       1700   32     330/ 16/ 23 1015.2R
LEWISETTA        1700   34 45              1015.9R
SOLOMONS ISLAND  1712      43                N/A
PINEY POINT      1712          330/ 26/ 28   N/A

$$




USA.gov is the U.S. government's official web portal to all federal, state and local government web resources and services.